Regional Weather Roundup
Issued by NWS Pendleton, OR

Home | Current Version | Previous Version | Text Only | Print | Product List | Glossary On
Versions: 1 2 3 4 5 6 7 8 9 10 11 12 13 14 15 16 17 18 19 20 21 22 23 24 25 26 27 28 29 30 31 32 33 34 35 36 37 38 39 40 41 42 43 44 45 46 47 48 49 50
000
ASUS46 KPDT 290604
RWRPDT
PENDLETON REGIONAL WEATHER ROUNDUP
NATIONAL WEATHER SERVICE PENDLETON OREGON
1100 PM PDT THU JUL 28 2016

NOTE: FAIR INDICATES FEW OR NO CLOUDS BELOW 12,000 FEET WITH NO
SIGNIFICANT WEATHER AND/OR OBSTRUCTIONS TO VISIBILITY.

# INDICATES UNOFFICIAL STATION AND DATA

WAZ520-290710-
EAST SLOPES OF WASHINGTON CASCADES

CITY            SKY/WX      TMP DP  RH  WIND    PRES   REMARKS
#CLE ELUM HS    N/A         73  53  49  N5      29.98S
#CLE ELUM 2NW   N/A         72  51  48  CALM    N/A
#GLENWOOD       N/A         66  58  75  CALM    29.88S
#MANASTASH CYN  N/A         72  41  33  CALM    30.03S
#NELSON 3SW     N/A         65  47  52  CALM    30.10S
#NILE           N/A         74  55  51  CALM    29.23R
#RONALD 2NW     N/A         70  N/A N/A NE1     30.13S
#TEANAWAY 4NE   N/A         69  55  61  CALM    N/A
#TROUT LAKE 1NE N/A         69  53  57  CALM    29.88S
#TROUT LAKE 1E  N/A         69  56  63  CALM    29.96R
$$

WAZ521-290710-
SIMCOE HIGHLANDS

CITY            SKY/WX      TMP DP  RH  WIND    PRES   REMARKS
#CENTERVILLE 1SWN/A         78  59  52  W7      29.81S
#GOLDENDALE 1NE N/A         76  38  25  CALM    N/A
#GOLDENDALE 4W  N/A         76  64  66  NE1     29.99R
#GOODNOE HILLS  N/A         84  54  36  NW6     29.85S
#LYLE 6NE       N/A         79  61  54  SE3     29.84S
$$

WAZ026-290710-
KITTITAS VALLEY

CITY            SKY/WX      TMP DP  RH  WIND    PRES   REMARKS
ELLENSBURG AP   CLEAR       77  53  43  NW13    30.00R
6HR MIN TEMP:   77; 6HR MAX TEMP:   98;

#ELLENSBURG CWU N/A         77  53  43  N8      29.85R
#ELLENSBURG 3NE N/A         75  55  50  N5      29.99R
#ELLENSBURG     N/A         80  54  41  W6      N/A
#ELLENSBURG 1E  N/A         79  N/A N/A CALM    N/A
#KITTITAS 4N    N/A         76  53  45  NW5     30.02R
#KITTITAS 3S    N/A         71  55  57  CALM    29.87S
#THORP 6N       N/A         75  53  46  W12     29.92S
$$

WAZ027-290710-
YAKIMA VALLEY

CITY            SKY/WX      TMP DP  RH  WIND    PRES   REMARKS
SUNNYSIDE AP    CLEAR       70  60  71  CALM    29.90S
6HR MIN TEMP:   70; 6HR MAX TEMP:   97;

YAKIMA AIRPORT  CLEAR       85  47  27  NW3     29.95R
6HR MIN TEMP:   82; 6HR MAX TEMP:   103;

YAKIMA-VAGABOND N/A         80  44  28  E9      29.94S
6HR MIN TEMP:   80; 6HR MAX TEMP:   99;

#DONALD 2NE     N/A         80  15   9  CALM    28.78S
#GRANDVIEW      N/A         77  55  47  CALM    29.86S
#MABTON         N/A         78  64  62  CALM    29.88S
#NACHES 2SW     N/A         79  53  41  W13G24  29.99R
#TERRACE HTS    N/A         81  51  35  CALM    29.83R
#TOPPENISH      N/A         83  55  38  N5      29.78S
#WEST VALLEY    N/A         82  49  32  E1      29.85R
#W YAKIMA       N/A         81  52  37  SE1     29.87R
#WHITE SWAN 5E  N/A         82  58  44  CALM    29.86S
#WILEY CITY 3W  N/A         76  50  40  CALM    29.93
$$

WAZ028-290710-
LOWER COLUMBIA BASIN...WASHINGTON

CITY            SKY/WX      TMP DP  RH  WIND    PRES   REMARKS
PASCO           CLEAR       72  63  73  N6      29.86S
6HR MIN TEMP:   72; 6HR MAX TEMP:   102;

PROSSER AWOS    N/A         75  59  58  N6      29.92S
RICHLAND AWOS   CLEAR       79  58  49  CALM    29.86S
#BENTON CITY    N/A         78  57  48  NW2     29.74F
#CONNELL 5N     N/A         75  48  38  CALM    29.84S
#CONNELL 5NW    N/A         70  58  66  CALM    29.80S
#ELTOPIA 6NW    N/A         85  51  31  CALM    28.87S
#KAHLOTUS       N/A         82  44  26  E3      29.83S
#KENNEWICK 3S   N/A         85  51  31  CALM    29.83S
#PATERSON       N/A         81  59  47  CALM    29.82S
#SAGEMOOR 2W    N/A         85  49  29  NW2     29.69S
#TOUCHET 2S     N/A         70  59  68  CALM    29.82S
#WEST PASCO     N/A         80  57  45  CALM    29.84F
$$

WAZ029-290710-
FOOTHILLS OF THE BLUES...WASHINGTON

CITY            SKY/WX      TMP DP  RH  WIND    PRES   REMARKS
WALLA WALLA AP  CLEAR       79  52  39  E8      29.92S
6HR MIN TEMP:   79; 6HR MAX TEMP:   100;

#CLYDE 6NW      N/A         73  45  37  CALM    29.82F
#DAYTON SCHOOL  N/A         74  46  37  N2      29.96S
#LOWDEN 2SE     N/A         73  60  64  E2      29.84R
#PLEASANT VIEW 1N/A         87  42  21  W2      29.85S
#PRESCOTT       N/A         76  54  46  CALM    29.82S
#WHITMAN COLLEGEN/A         83  54  37  E2      29.88S
#WAITSBURG 5S   N/A         77  51  40  CALM    29.93S
#WAITSBURG 8N   N/A         68  19  15  CALM    29.90F
#WALLA WALLA U  N/A         81  57  44  CALM    29.83S
#WHITMAN MISSIONN/A         74  60  62  CALM    29.85S
$$

WAZ030-290710-
BLUE MOUNTAINS...WASHINGTON

CITY            SKY/WX      TMP DP  RH  WIND    PRES   REMARKS
#DIXIE 5SE      N/A         79  50  36  SE3     29.98S
$$

ORZ009-041-WAZ024-290710-
COLUMBIA RIVER GORGE

CITY            SKY/WX      TMP DP  RH  WIND    PRES   REMARKS
HOOD RIVER AP   CLEAR       77  64  64  CALM    29.93S
THE DALLES AP   CLEAR       84  58  41  VRB5    29.87S
6HR MIN TEMP:   84; 6HR MAX TEMP:   102;

#ARLINGTON AIRPON/A         85  46  26  NW3     29.85S
#LYLE           N/A         85  62  46  W2      29.88S
#MARYHILL 2W    N/A         87  59  39  W3      N/A
#MOSIER 1S      N/A         79  46  31  N2      29.91S
#MURDOCK        N/A         84  60  44  NW10    29.82S
#RUFUS DOT      N/A         90  60  37  SW2     N/A    HX 90
#SMITHVILLE     N/A         84  61  46  W14     29.74S

$$

ORZ510-290710-
NORTH CENTRAL OREGON

CITY            SKY/WX      TMP DP  RH  WIND    PRES   REMARKS
#ANTELOPE       N/A         74  45  35  N2      29.70R
#CHENOWITH 1W   N/A         78  58  50  NW20    N/A
#COW CYN RST AREN/A         80  N/A N/A N8      N/A
#DUFUR 9E       N/A         81  59  47  W1      29.91R
#GRASS VALLEY 1SN/A         78  56  47  NW3     29.96S
#KENT DOT       N/A         76  47  36  N3      N/A
#MAUPIN SCHOOL  N/A         84  60  44  CALM    29.96R
#SHANIKO 5WSW   N/A         78  43  29  N14     N/A
#SHANIKO 4NW    N/A         76  59  56  N10     30.09S
#TYGH VALLEY 2NEN/A         85  57  39  CALM    29.85R
#WAPANITIA AIRPON/A         76  59  56  CALM    29.88R
#WASCO 5NE      N/A         79  60  52  SW2     29.85S
$$

ORZ511-290710-
CENTRAL OREGON

CITY            SKY/WX      TMP DP  RH  WIND    PRES   REMARKS
BEND AIRPORT    CLEAR       77  41  28  NW5     30.08R
MADRAS AIRPORT  CLEAR       75  48  38  N6      30.03S
PRINEVILLE AP   CLEAR       72  43  35  N6      30.06R
REDMOND AIRPORT CLEAR       74  38  27  CALM    30.05R
6HR MIN TEMP:   74; 6HR MAX TEMP:   97;

#ASHWOOD SCHOOL N/A         76  40  27  CALM    29.98R
#BEND 1SW       N/A         67  45  45  E1      N/A
#BEND-AWBREY    N/A         77  44  31  N2      29.87R
#CULVER         N/A         73  47  40  CALM    29.80R
#CULVER 8W      N/A         81  52  37  CALM    30.05R
#LAKE BILLY CHINN/A         81  N/A N/A N1      30.07R
#MADRAS 4S      N/A         N/A N/A N/A W14     30.09R
#POWELL BUTTE 3EN/A         74  42  32  S3      N/A
#POWELL BUTTE   N/A         74  42  32  SE2     29.94S
#PRINEVILLE 3N  N/A         74  46  37  SE3     29.94R
#WARM SPRINGS   N/A         85  59  41  CALM    29.94R

$$


ORZ509-290710-
EAST SLOPES OF OREGON CASCADES

CITY            SKY/WX      TMP DP  RH  WIND    PRES   REMARKS
SISTERS AWOS    N/A         72  48  43  CALM    30.05R
#BLUE BOX PASS  N/A         67  N/A N/A CALM    N/A
#CAMP SHERMAN   N/A         67  54  63  CALM    29.94S
#LA PINE DOT    N/A         69  45  42  CALM    N/A
#LA PINE 4NW    N/A         64  48  56  CALM    29.93R
#LAVA BUTTE DOT N/A         70  40  34  CALM    N/A
#SISTERS AIRPOR N/A         71  55  57  N1      30.17S
#SISTERS 3N     N/A         65  43  45  CALM    30.06R
#SUNRIVER       N/A         68  45  44  CALM    30.03S
#SUTTLE LK DOT  N/A         67  58  73  NW2     N/A
#TUMALO 3W      N/A         79  48  34  NW5     29.74R
#WANOGA BUTTE D N/A         69  37  31  NE5     N/A

$$

ORZ044-290710-
LOWER COLUMBIA BASIN...OREGON

CITY            SKY/WX      TMP DP  RH  WIND    PRES   REMARKS
HERMISTON       CLEAR       77  50  39  S8      29.87S
6HR MIN TEMP:   75; 6HR MAX TEMP:   103;

#BOARDMAN 8SW   N/A         79  54  42  NE1     29.84S
#ECHO 8SW       N/A         74  49  41  SW3     29.89S
#I-84 EX 198 DOTN/A         85  53  33  NE2     N/A
#UMATILLA       N/A         81  56  42  CALM    29.77S
$$

ORZ507-290710-
NORTHERN FOOTHILLS OF THE BLUES

CITY            SKY/WX      TMP DP  RH  WIND    PRES   REMARKS
PENDLETON AIRPT CLEAR       79  45  30  E7      29.94R
6HR MIN TEMP:   76; 6HR MAX TEMP:   99;

#ADAMS 3WNW     N/A         72  48  43  CALM    29.85R
#ATHENA         N/A         70  51  51  CALM    29.88S
#CAYUSE         N/A         81  55  41  E9      29.83S
#HELIX SCHOOL   N/A         77  49  37  CALM    29.85S
#HELIX 3N       N/A         73  47  40  CALM    29.94S
#HOLDMAN 5SE    N/A         71  44  38  CALM    29.93R
#HOLDMAN 6E     N/A         80  47  31  CALM    29.66S
#M-F GROVE ELEM N/A         80  51  36  CALM    29.90S
#M-FREEWATER 5SEN/A         78  57  48  NE5     29.93S
#PENDLETON DNTN N/A         77  43  30  CALM    29.95R
#PDT AQUATIC CTRN/A         78  42  28  CALM    29.74S
#PDT SUNRIDGE   N/A         73  47  40  CALM    29.94R
#PENDLETON 7NW  N/A         72  48  43  CALM    31.70S
#PILOT ROCK 1S  N/A         76  45  33  CALM    29.97S
#PILOT ROCK     N/A         74  47  38  SW6     29.99S
#TUTUILLA       N/A         70  46  42  CALM    29.89R
#UMAPINE 2E     N/A         72  59  64  SE1     29.86S
#WESTON SCHOOL  N/A         76  47  36  NW1     29.81S

$$

ORZ508-290710-
SOUTHERN FOOTHILLS OF THE BLUES

CITY            SKY/WX      TMP DP  RH  WIND    PRES   REMARKS
LEXINGTON       CLEAR       75  43  32  SE12    29.98S
#CONDON 5W      N/A         81  40  23  NE7     30.03F
#HEPPNER EOC    N/A         76  46  34  SE7     29.80S
#HEPPNER 4NE    N/A         70  45  41  E3      29.86S
#LEXINGTON 2SE  N/A         74  47  38  SE6     29.91S
#RUGGS 5NE      N/A         70  40  34  SE1     30.20S
#RUGGS 2SW      N/A         75  44  33  S7      29.88S

$$

ORZ502-503-290710-
BLUE MOUNTAINS

CITY            SKY/WX      TMP DP  RH  WIND    PRES   REMARKS
MEACHAM         CLEAR       61  49  65  CALM    30.11S
6HR MIN TEMP:   61; 6HR MAX TEMP:   88;

#BATTLE MTN DOT N/A         67  45  45  W2      N/A
#CUTSFORTH PARK N/A         58  47  67  CALM    29.91S
#GREENHORN 9SW  N/A         64  46  52  CALM    26.28R
#HARDMAN 10S    N/A         61  34  36  N5      30.22R
#HEPPNER 15SE   N/A         63  45  52  CALM    25.65F
#LADD CYN SMT   N/A         72  49  44  W2      N/A
#LADD CREEK ODOTN/A         72  50  46  SW3     N/A
#LONG CREEK HS  N/A         68  46  45  CALM    N/A
#N POWDER DOT   N/A         67  52  59  N2      N/A
#PIKES PEAK     N/A         80  46  30  CALM    27.99S
#TOLLGATE       N/A         66  48  52  CALM    30.03S
#TROY SCHOOL    N/A         73  54  51  CALM    29.71R
#UKIAH          N/A         63  48  58  CALM    29.83S
#WESTON 4E      N/A         72  49  44  CALM    29.82F
$$

ORZ505-290710-
JOHN DAY BASIN

CITY            SKY/WX      TMP DP  RH  WIND    PRES   REMARKS
JOHN DAY        CLEAR       78  43  29  NW6     30.09R
#DAYVILLE SCHOOLN/A         86  43  22  N3      29.98S
#MITCHELL       N/A         73  49  43  CALM    30.22R
#MITCHELL 8NW   N/A         80  38  22  NE1     30.04R
#MONUMENT HS    N/A         80  45  29  CALM    29.84R
#MT. VERNON 5SE N/A         76  44  32  CALM    30.06R
#SPRAY SCHOOL   N/A         75  N/A N/A CALM    N/A
$$

ORZ506-290710-
OCHOCO AND JOHN DAY HIGHLANDS

CITY            SKY/WX      TMP DP  RH  WIND    PRES   REMARKS
#BUCK CREEK DOT N/A         78  40  26  W6      N/A
#HORSE RIDGE DO N/A         66  36  33  CALM    N/A
#KEYES SMT DOT  N/A         75  41  29  N3      N/A
#PAULINA SCHOOL N/A         77  40  26  CALM    N/A
#PINE MTN OBS   N/A         68  39  35  NW5     N/A
#PRAIRIE CITY   N/A         67  47  49  CALM    30.23R
#SENECA         N/A         70  N/A N/A SW1     N/A
#SENECA 9NW     N/A         70  44  39  CALM    29.83S
$$

ORZ049-290710-
GRANDE RONDE VALLEY

CITY            SKY/WX      TMP DP  RH  WIND    PRES   REMARKS
LA GRANDE       CLEAR       77  46  33  W6      30.03R
#COVE           N/A         74  59  59  CALM    30.06S
#COVE SCHOOL    N/A         72  55  55  CALM    30.04S
#COVE 6NW       N/A         72  52  49  CALM    29.90S
#ELGIN 3N       N/A         71  48  44  CALM    30.00S
#ELGIN 1E       N/A         74  52  46  CALM    N/A
#IMBLER SCHOOL  N/A         76  52  43  N1      29.98S
#ISLAND CITY 4N N/A         72  61  68  CALM    29.96S
#LADD CYN DOT   N/A         76  53  45  SE6     N/A
#UNION 1S       N/A         72  54  53  CALM    29.77R
$$

ORZ050-290710-
WALLOWA COUNTY

CITY            SKY/WX      TMP DP  RH  WIND    PRES   REMARKS
JOSEPH AIRPORT  CLEAR       64  45  50  S6      N/A
#ENTERPRISE AP  N/A         49  29  46  CALM    30.05R
#ENTERPRISE HS  N/A         65  51  60  CALM    30.09R
#IMNAHA SCHOOL  N/A         72  51  48  S1      29.96R
#IMNAHA 10S     N/A         72  48  43  SW5     30.03R
#JOSEPH 3N      N/A         59  47  64  CALM    30.12R
#JOSEPH 3W      N/A         68  47  47  SW3     29.99F
#LOSTINE        N/A         65  49  56  CALM    29.69R
#LOSTINE 3SE    N/A         66  46  48  S3      30.07R
#MT HOWARD 8000 N/A         59  40  49  VRB2    30.42S
#PROMISE 1S     N/A         69  47  45  CALM    29.97S
#WALLOWA SCHOOL N/A         65  53  65  CALM    30.01S



$$



USA.gov is the U.S. government's official web portal to all federal, state and local government web resources and services.